Location: Audinghen
(50.8518°N, 1.6129°E)
Time: 06:36:17
(UTC+00:00)

Cosmos 2360 Rocket - Pass Details

Date: 07 August 2020
Orbit: 834 x 845 km, 71.0° (Epoch: 26 September)

Event Time Altitude Azimuth Distance (km) Brightness Sun altitude
Rises 00:25:50 0° 323° (NW) 3,416 6.0 -22.6°
Reaches altitude 10° 00:28:38 10° 311° (NW) 2,475 5.0 -22.5°
Maximum altitude 00:33:16 27° 257° (WSW) 1,585 3.4 -22.4°
Enters shadow 00:33:43 26° 249° (WSW) 1,594 3.3 -22.4°
